Dewpoint
39 39 38 37 37 37 37 37 36 35 34 33 32 32 32 32 32 32 33 33 32 31 30 30 30 30 32 35 37 37 38 38 38 38 38 38 38 38 38 38 38 38 38 38 38 38 38 38 38 38 38 38 38 38 38 38 38 38 38 39 39 39 39 39 39 39 39 39 39 39 38 38 38 38 38 38 38 38 38 37 37 38 38 39 39 40
40 39 38 38 37 37 36 35 34 33 32 32 31 31 31 30 30 30 30 31 31 31 30 30 30 30 29 32 35 37 37 38 38 38 38 38 38 38 38 38 38 38 38 38 38 38 38 38 38 38 38 38 38 38 37 37 38 38 38 38 38 38 38 38 38 38 38 38 38 38 38 38 38 38 38 37 37 37 37 37 37 38 38 39 40 41
38 38 37 37 36 35 34 33 33 33 32 32 32 32 31 30 30 30 30 31 31 31 30 30 30 30 29 32 35 37 38 38 38 38 38 38 38 38 37 38 38 38 38 38 38 38 37 37 37 37 37 37 37 37 37 37 38 38 38 38 38 38 38 38 38 38 37 37 37 37 37 37 37 37 37 37 37 37 37 37 37 38 39 40 40 41
37 37 36 35 34 33 33 33 34 34 34 33 33 32 31 31 31 31 31 31 31 31 31 30 30 30 30 31 33 36 37 38 38 37 37 37 37 37 37 37 37 37 37 37 37 37 37 37 37 37 37 37 37 37 37 37 38 38 38 38 38 38 38 38 37 37 37 37 36 36 36 36 36 36 36 36 36 36 37 37 38 39 39 40 41 41
36 36 35 34 34 34 34 35 35 35 35 34 33 32 32 31 31 31 32 31 31 31 31 31 31 30 30 31 32 35 37 37 37 37 37 36 36 36 36 36 36 36 37 37 37 37 37 37 37 37 37 37 37 37 37 37 38 38 38 38 38 38 37 37 37 36 36 36 35 35 35 35 35 35 35 35 35 36 37 37 38 39 40 41 41 41
36 35 35 34 34 35 35 35 35 35 34 33 32 32 32 31 31 31 31 31 31 31 31 31 31 31 31 31 33 35 37 36 36 35 35 35 35 35 35 35 35 36 36 36 36 37 37 37 37 37 37 37 37 37 37 37 38 38 38 38 37 37 37 36 36 35 35 35 34 34 34 34 34 34 35 35 35 36 37 37 38 40 40 41 41 41
35 35 35 35 35 35 35 35 35 34 33 32 32 32 31 31 31 31 31 31 31 31 31 32 31 31 31 32 33 35 34 35 34 34 34 34 34 34 35 35 35 36 36 36 37 37 37 37 37 37 37 37 37 37 38 38 37 37 37 37 37 36 36 35 35 35 34 34 34 33 33 34 34 34 34 35 35 36 37 37 38 39 40 40 40 39
34 34 34 34 34 34 34 34 34 34 33 32 32 31 31 31 31 30 30 31 31 31 31 31 31 31 30 29 30 31 30 30 30 30 31 32 33 34 35 35 36 36 36 36 37 37 37 37 37 37 37 37 37 37 37 37 37 37 37 36 36 35 35 34 34 34 33 33 33 33 33 33 34 34 34 35 36 36 37 37 38 38 38 38 38 38
34 34 34 34 34 34 34 34 33 33 32 32 31 31 30 30 30 30 31 31 31 31 31 31 30 28 28 26 26 27 28 28 28 28 29 30 31 32 34 35 36 36 36 37 37 37 37 37 37 37 37 37 37 37 37 37 36 36 36 35 35 34 34 33 33 33 33 33 33 33 33 33 34 34 35 35 36 36 37 37 37 37 37 37 37 38
34 34 34 34 34 34 34 33 33 32 32 31 31 31 31 31 31 31 31 31 31 31 30 28 28 26 26 25 25 26 28 29 30 32 32 32 32 33 34 35 35 35 36 36 36 36 37 37 37 37 37 36 36 36 36 36 36 35 35 34 34 33 33 33 32 32 32 33 33 33 33 34 34 35 35 36 36 36 36 35 35 35 35 36 37 37
34 34 34 34 34 34 33 33 32 32 32 32 32 32 32 32 31 31 30 30 29 29 28 28 27 26 26 26 26 26 27 28 29 31 32 33 34 35 35 34 34 35 35 36 36 36 37 37 36 36 36 36 35 35 35 35 35 35 34 34 33 32 32 32 32 32 32 33 33 33 34 34 34 35 36 36 36 35 35 34 34 34 34 35 36 36
34 34 34 34 34 33 32 32 32 32 32 32 32 32 32 32 31 30 29 29 29 28 28 28 27 27 26 26 26 26 27 27 28 28 29 31 32 32 32 32 33 34 35 36 36 37 37 37 36 36 35 35 35 35 35 34 34 34 33 33 32 32 32 32 32 32 32 32 33 33 34 34 35 35 36 35 35 34 34 33 33 33 34 34 35 35
34 35 34 34 33 32 32 32 32 32 32 32 32 31 31 31 31 30 30 30 29 29 28 27 27 26 26 26 26 27 27 28 28 29 29 30 30 31 31 31 32 33 34 35 35 35 36 36 36 35 35 35 35 35 35 34 34 33 33 32 32 32 32 32 32 32 32 32 33 33 34 34 35 35 35 35 34 33 33 33 33 33 33 34 34 34
34 34 33 33 32 32 32 32 32 32 32 32 32 32 32 32 32 32 31 30 29 28 28 27 26 26 26 27 28 28 29 30 31 32 32 32 32 32 32 34 35 36 35 35 34 33 35 34 34 33 34 34 34 34 34 34 33 33 32 32 32 32 32 32 32 32 32 32 32 33 33 34 34 34 34 33 33 33 33 33 33 33 33 34 34 34
33 33 32 32 32 32 32 32 32 33 33 34 34 34 34 33 33 32 31 29 29 28 28 27 27 27 27 28 29 31 33 35 36 36 35 35 34 34 35 36 36 36 35 33 32 32 33 32 31 30 31 32 32 33 33 33 32 32 32 32 32 32 32 32 32 32 32 32 32 32 33 33 33 33 33 33 33 33 33 33 33 33 33 34 34 34
35 35 34 34 33 33 34 34 35 36 36 36 35 34 33 33 32 31 30 29 29 28 28 28 28 28 29 32 35 37 38 38 37 36 35 35 35 35 35 35 34 33 32 32 31 30 30 30 30 29 30 31 32 33 33 33 32 32 32 31 31 31 31 31 31 31 32 32 32 32 32 32 32 32 32 32 32 33 33 33 33 33 34 34 34 34
36 36 35 35 36 36 37 37 37 37 36 35 34 34 33 32 32 31 31 30 30 30 30 31 31 31 32 35 38 39 39 37 36 35 34 34 33 33 33 32 32 31 31 30 30 29 29 29 29 29 29 32 32 33 32 32 31 31 31 31 31 31 31 31 31 31 31 32 32 32 32 32 32 32 32 32 32 33 33 33 33 33 34 34 35 35
37 36 36 36 37 37 37 36 35 35 35 35 35 35 34 33 33 32 32 32 32 32 33 33 33 33 32 33 35 37 37 35 34 34 33 32 31 31 31 30 30 30 29 28 28 28 28 28 28 28 29 31 32 31 31 30 30 30 30 30 30 31 31 31 31 31 31 31 31 31 32 32 32 32 32 32 32 32 33 33 33 33 34 34 35 35
37 36 36 36 36 36 36 36 36 36 37 36 36 35 34 34 34 33 33 33 34 34 35 34 34 33 33 32 33 34 35 34 34 33 32 31 31 30 30 29 29 29 28 28 27 27 27 27 28 30 31 31 30 30 29 29 29 30 30 30 30 30 30 30 30 30 31 31 31 31 31 31 32 32 32 32 32 32 32 33 33 33 34 34 35 35
37 36 36 36 36 36 36 37 37 37 37 37 37 36 35 35 35 35 35 36 36 36 35 34 33 33 33 33 33 33 34 33 32 32 31 31 30 30 29 29 29 29 28 27 26 25 25 25 25 26 28 29 29 29 29 29 29 30 30 30 30 30 30 30 30 30 30 30 31 31 31 31 31 31 32 32 32 32 32 32 33 33 34 34 35 35
36 36 36 36 37 37 37 37 37 37 38 38 37 36 36 36 36 35 35 35 35 35 34 34 33 33 33 33 32 32 33 32 32 32 32 31 31 30 30 29 28 28 27 26 25 24 24 23 23 23 26 28 28 29 29 29 29 29 29 29 29 29 29 29 29 30 30 30 30 31 31 31 31 31 31 32 32 32 32 32 33 33 34 34 35 35
37 37 37 37 37 38 38 37 37 39 40 39 38 37 37 36 35 35 34 34 34 34 34 34 33 33 33 32 32 32 32 32 32 32 32 31 30 30 29 28 27 25 24 24 23 23 23 22 22 23 26 28 29 29 29 29 29 29 29 29 29 29 29 29 29 29 30 30 30 30 30 31 31 31 31 31 32 32 32 32 33 33 34 34 35 35
37 37 37 37 38 38 39 38 39 39 40 39 38 37 36 35 35 35 35 35 35 35 34 33 32 31 30 30 30 30 30 32 33 33 32 29 28 28 28 26 25 23 23 22 22 22 22 22 22 23 26 28 28 28 28 28 28 28 28 28 29 29 29 29 29 29 29 29 30 30 30 30 30 31 31 31 31 32 32 32 33 33 34 34 35 35
37 37 37 37 38 39 39 39 39 38 38 37 36 35 33 34 34 35 36 36 35 33 32 30 28 27 26 26 25 26 28 32 33 32 31 28 28 27 27 25 23 23 22 22 22 22 22 22 22 22 24 26 28 28 28 28 28 28 28 28 28 28 29 29 29 29 29 29 29 30 30 30 30 31 31 31 31 32 32 32 33 33 34 34 35 35
38 38 38 38 38 37 37 36 36 35 35 34 33 32 32 34 35 35 35 33 31 29 28 27 25 24 24 24 24 24 29 31 31 30 29 28 27 26 25 24 23 22 21 22 22 22 22 22 22 22 22 24 26 28 28 28 28 28 28 28 28 28 28 28 28 28 28 29 29 29 30 30 30 30 31 31 31 32 32 32 32 33 33 34 34 34
37 37 36 35 34 34 33 32 32 32 32 32 32 32 32 33 32 31 29 28 28 27 27 26 24 24 23 23 23 24 29 31 32 30 29 27 25 24 23 23 22 22 22 22 22 22 21 21 21 21 20 21 23 26 27 27 28 28 28 28 28 28 28 28 28 28 28 28 29 29 29 30 30 30 30 31 31 31 32 32 32 33 33 33 34 34
34 33 32 32 32 32 32 32 32 32 32 32 32 32 32 32 30 29 28 28 28 28 27 25 24 23 23 23 23 24 28 32 32 30 28 26 24 23 23 23 23 23 22 22 22 22 22 21 21 20 20 19 21 24 26 27 27 27 27 27 27 27 27 27 28 28 28 28 28 29 29 29 29 30 30 30 31 31 32 32 32 32 33 33 33 32
33 32 32 32 31 31 31 32 32 32 32 32 32 33 33 32 30 29 29 29 28 28 26 24 23 23 23 23 24 25 29 30 31 29 28 26 25 24 23 23 23 23 22 21 21 22 22 21 20 20 19 19 20 22 25 26 27 27 27 27 27 27 27 27 27 27 28 28 28 28 28 29 29 29 30 30 30 31 31 32 32 33 33 32 32 31
32 32 32 32 32 32 32 32 33 33 32 32 32 33 34 32 31 30 30 29 28 27 25 24 24 24 24 25 25 26 28 29 29 29 28 27 26 25 24 24 23 22 21 20 20 20 20 20 19 19 19 20 21 21 22 23 24 25 25 26 26 26 26 26 27 27 27 28 28 28 28 28 29 29 29 30 30 31 31 32 32 32 32 32 32 31
30 30 29 30 31 31 32 32 32 33 32 32 32 33 33 32 31 31 30 29 28 26 25 24 24 25 25 25 25 24 25 28 30 31 30 28 26 25 24 23 22 21 21 20 20 19 18 19 19 19 19 20 20 19 19 20 21 21 22 23 24 24 25 26 26 27 27 27 27 28 28 28 28 28 29 29 30 31 32 32 33 33 32 32 32 32
27 28 27 28 28 28 29 29 30 31 31 32 32 32 32 32 32 31 30 29 28 27 26 25 25 26 26 25 24 23 23 27 30 32 30 28 25 24 23 22 21 21 21 21 20 19 18 18 18 19 19 19 19 19 19 19 19 19 19 19 21 22 24 25 25 26 26 26 27 27 27 28 28 28 29 30 30 31 32 33 33 33 32 32 32 32
27 28 27 27 27 27 28 28 28 28 28 29 30 30 31 31 31 31 30 29 29 28 28 27 27 27 27 26 25 24 24 26 29 32 30 27 24 23 22 22 21 20 21 21 21 20 18 17 17 17 18 17 17 18 19 19 19 18 18 19 19 20 23 24 24 24 25 25 26 26 27 27 28 28 29 30 31 32 32 33 34 34 33 33 32 32
28 28 27 28 27 27 27 27 26 26 27 27 28 28 30 31 31 32 31 30 29 29 29 28 28 27 27 26 26 25 25 26 28 30 29 26 24 23 22 22 21 20 20 20 20 19 19 17 17 16 16 17 17 17 17 18 19 19 18 18 18 19 21 22 22 22 23 24 24 25 26 27 28 28 29 30 31 32 32 33 34 34 35 33 33 32
28 28 28 27 26 26 26 25 25 26 26 26 27 28 30 31 31 31 31 30 30 30 30 29 28 28 27 27 26 25 24 25 27 29 29 27 25 24 23 22 21 20 19 19 19 18 18 17 16 16 16 16 17 17 17 17 18 19 18 18 18 18 19 20 20 20 21 22 22 23 24 25 27 28 28 29 30 31 32 33 34 34 35 34 33 33
27 27 27 26 26 26 26 25 25 25 26 26 27 28 30 31 31 31 30 30 30 30 30 30 29 29 28 27 26 25 24 24 26 29 30 28 26 25 23 22 21 20 19 19 18 18 17 17 17 17 16 16 16 16 17 17 17 18 18 18 18 18 18 19 19 19 20 20 21 22 23 23 25 26 27 28 30 31 32 33 33 34 34 34 34 33
26 26 26 26 26 26 26 26 26 25 25 26 28 29 30 31 30 30 29 29 30 30 30 30 30 30 29 28 28 26 26 26 27 29 31 29 27 25 23 22 21 20 19 19 19 18 18 17 18 18 18 16 15 15 16 17 18 18 17 18 18 18 19 19 19 19 19 20 21 22 23 23 24 25 26 28 30 31 32 32 33 33 33 34 34 34
25 25 25 26 26 26 27 26 25 25 26 27 28 29 31 30 29 28 28 28 28 28 29 29 30 30 30 29 28 28 28 28 28 29 31 29 27 25 24 23 22 21 20 19 19 19 19 19 18 18 17 16 15 15 16 17 17 17 17 17 18 18 19 20 20 20 20 22 23 23 24 24 25 26 27 29 30 30 31 32 32 32 32 33 33 34
24 25 26 26 26 26 26 26 25 26 27 28 29 30 31 30 28 27 28 28 27 26 25 26 27 28 29 30 30 29 29 28 28 28 29 28 27 25 24 23 22 22 21 20 20 20 20 19 19 17 16 16 16 17 17 17 16 16 17 18 19 19 19 20 20 21 21 23 23 24 25 25 25 26 27 28 28 28 28 28 29 31 32 32 32 33
23 23 24 25 26 26 25 25 25 26 28 29 31 31 30 29 28 28 29 28 27 26 24 24 25 25 25 26 28 30 30 29 28 28 28 25 24 23 24 23 22 22 21 22 22 22 22 20 19 18 17 17 17 17 17 17 16 16 17 18 19 19 19 20 21 22 23 23 24 25 25 25 25 26 26 26 26 26 26 27 28 28 29 29 30 32
22 22 23 24 24 24 25 25 26 27 29 31 32 31 29 28 28 28 28 29 30 28 26 24 25 27 27 28 29 29 29 28 29 28 25 23 21 21 23 23 23 23 23 23 23 23 22 21 20 19 19 18 17 17 17 16 17 18 19 18 18 18 20 21 22 22 23 23 23 24 24 25 25 25 26 26 26 26 26 26 27 28 28 28 28 29
22 22 22 23 24 24 25 25 27 29 32 32 30 27 27 27 28 28 28 28 29 28 27 27 26 25 24 23 23 24 26 28 29 28 23 22 21 21 22 23 24 24 24 23 23 21 20 19 19 19 18 18 18 18 17 17 18 19 20 19 18 19 20 21 22 23 23 23 23 24 25 25 26 26 25 26 26 26 26 26 27 27 28 28 28 29
23 23 23 23 23 24 24 26 28 31 33 31 28 25 26 26 26 27 27 27 28 28 28 27 25 23 22 22 22 23 23 25 26 26 24 23 22 22 22 24 25 24 23 21 20 19 19 19 19 19 18 18 18 17 17 17 19 19 20 19 19 20 21 22 22 22 22 23 23 24 26 25 25 25 25 25 25 26 27 27 27 28 29 28 29 29
23 23 23 23 24 24 25 27 29 31 32 29 26 25 25 25 24 24 25 25 27 27 27 25 24 22 21 20 20 20 21 20 20 22 23 22 22 23 23 23 23 21 20 19 19 19 19 19 19 18 18 18 18 18 17 18 18 19 19 20 20 20 19 20 21 22 23 23 23 24 25 25 25 25 25 25 25 25 26 27 28 29 29 29 29 30
23 23 23 23 24 25 25 26 28 30 30 28 27 26 27 27 26 25 25 25 25 27 27 25 23 22 20 20 19 19 20 19 19 19 21 24 24 24 23 22 21 20 20 19 19 18 18 18 18 18 18 18 18 18 17 17 18 18 19 20 21 21 20 21 21 22 22 23 23 24 24 25 25 25 25 25 25 25 25 26 26 27 29 30 31 31
23 23 23 24 24 25 25 26 27 28 29 28 28 27 26 28 27 26 24 24 25 25 25 23 23 21 20 20 19 19 19 19 20 20 19 23 24 24 23 22 21 20 19 19 19 18 18 17 17 17 17 18 17 17 17 18 18 19 20 21 22 22 22 22 22 22 22 23 23 24 24 24 24 24 23 24 24 24 25 26 26 27 28 29 31 32
23 23 23 23 24 24 25 26 27 27 27 28 28 28 28 27 26 24 25 25 25 24 24 23 22 20 19 20 20 19 19 19 19 19 19 19 19 21 22 22 22 21 20 19 19 18 18 17 17 17 17 17 17 17 17 18 18 19 19 21 21 21 21 22 22 22 23 23 23 23 24 24 24 23 23 23 24 24 25 26 26 27 28 29 30 32
22 22 23 23 24 24 25 25 26 26 27 27 28 28 28 27 26 24 24 26 25 25 24 23 21 19 19 19 19 19 19 19 19 19 19 19 19 19 20 20 21 21 20 19 19 19 19 18 18 17 17 16 16 16 17 18 19 20 20 21 21 20 20 21 21 22 23 23 23 23 24 23 23 23 23 23 24 24 25 26 26 27 28 29 31 32
23 23 23 24 24 25 25 25 25 26 27 27 28 28 28 28 27 25 24 25 25 24 24 22 19 18 19 19 20 20 20 19 19 18 18 18 19 19 19 19 19 19 19 19 19 19 19 19 18 18 17 16 16 17 18 19 20 20 21 21 20 20 20 21 21 22 23 23 23 23 24 23 23 23 23 23 23 24 24 25 26 27 28 30 32 33
22 23 23 24 24 25 24 24 25 25 26 27 28 28 28 28 28 28 26 24 23 22 22 21 19 19 19 20 20 20 21 19 19 18 18 18 19 19 19 19 18 18 17 17 17 17 17 18 19 19 19 19 19 19 19 20 20 20 20 20 20 20 20 21 21 22 22 23 23 23 24 23 23 24 24 23 23 23 24 24 25 27 28 30 32 33
22 22 23 24 24 25 25 24 24 25 26 27 28 28 26 25 25 26 27 25 23 22 22 20 19 19 20 20 20 20 20 19 18 18 18 18 19 19 19 18 18 17 16 16 15 15 14 15 17 19 21 22 22 21 20 19 20 20 20 20 20 21 21 21 21 22 22 23 23 23 23 23 24 24 24 24 23 23 23 24 25 26 27 30 32 34
22 22 23 23 24 25 25 25 25 25 26 27 28 28 27 26 25 25 24 23 23 22 21 20 20 20 21 21 21 20 20 18 18 18 18 18 19 19 18 18 17 17 16 15 14 14 14 13 14 15 17 20 22 22 20 20 20 20 20 20 20 21 21 21 21 22 23 23 23 23 23 23 23 24 24 24 23 23 23 24 24 26 27 29 32 34